GLOBALSTAR M079 (37188 NORAD) Tracking and Keplerian Element Data

This shows tracking and keplerian element data for the satellite.

Feedback or suggestion? Click here.




ElementValue
Catalog37188
NameGLOBALSTAR M079
Epoch Orbit69993
Epoch Day354.09052307
Epoch Year2025
RAAN293.869
Inclination52.0069
Eccentricity7.13E-05
Argument of Perigee31.2994
Mean Anonmoly342.4928
Mean Motion12.62261594
Decay Rate-8.6E-07
L11 37188U 10054A 25354.09052307 -.00000086 00000+0 10108-3 0 9999
L22 37188 52.0069 293.8690 0000713 31.2994 342.4928 12.62261594699933



Live tracking and technical data element details for GLOBALSTAR M079 (NORAD 37188). GLOBALSTAR M079 can be tracked NOW for your location showing map with azimuth and elevation plus other details from your city location.







IsCatalogInMostPopularTable: catalog: 37188, numindb: 355
Update: records affected: 1



GetName: 37188 GLOBALSTAR M079

Hit Count: updated at: Tue, 20 Jan 2026 19:17:21 GMT